Location: Asis
(14.1331°N, 120.9056°E)
Time: 16:30:43
(UTC+00:00)

GPS 2-17 Rocket1 - Pass Details

Date: 15 January 2026
Orbit: 545 x 615 km, 20.3° (Epoch: 13 February)

Event Time Altitude Azimuth Distance (km) Brightness Sun altitude
Rises 11:25:11 0° 287° (WNW) 2,838 7.3 -23.3°
Reaches altitude 10° 11:27:33 10° 289° (WNW) 1,926 6.3 -23.8°
Enters shadow 11:31:28 63° 320° (NW) 657 3.1 -24.7°
